Location: Unspecified
(29.5713°N, 0.0000°E)
Time: 05:19:35
(UTC+00:00)

NOAA 16 DEB - Visible Passes

Search period start: 04 April 2026 00:00
Search period end: 14 April 2026 00:00
Orbit: 799 x 880 km, 98.8° (Epoch: 24 March)

Date Brightness Start Highest point End Pass type
(mag) Time Alt. Az. Time Alt. Az. Time Alt. Az.
4 Apr ? 04:35:21 10° NNE 04:40:07 35° E 04:44:52 10° SSE visible
5 Apr ? 04:20:44 10° NE 04:24:56 24° E 04:29:08 10° SSE visible
6 Apr ? 04:06:25 10° NE 04:09:43 17° E 04:13:01 10° SE visible
7 Apr ? 03:53:02 10° ENE 03:54:28 11° E 03:55:55 10° ESE visible
8 Apr ? 05:14:50 10° NNE 05:20:05 88° WNW 05:25:23 10° SSW visible
9 Apr ? 04:59:45 10° NNE 05:04:58 64° ESE 05:10:12 10° S visible
10 Apr ? 04:44:47 10° NNE 04:49:48 44° E 04:54:50 10° S visible
11 Apr ? 04:30:00 10° NE 04:34:36 31° E 04:39:14 10° SSE visible
12 Apr ? 04:15:25 10° NE 04:19:22 21° E 04:23:20 10° SE visible
13 Apr ? 04:01:15 10° ENE 04:04:06 15° E 04:06:58 10° SE visible
